Weather Roundup
Issued by NWS Chicago, IL

Home | Current Version | Previous Version | Graphics & Text | Print | Product List | Glossary On
Versions: 1 2 3 4 5 6 7 8 9 10 11 12 13 14 15 16 17 18 19 20 21 22 23 24 25 26 27 28 29 30 31 32 33 34 35 36 37 38 39 40 41 42 43 44 45 46 47 48 49 50
000
NZUS59 KLOT 290903
HRRLOT

CHICAGO AREA WEATHER ROUNDUP
NATIONAL WEATHER SERVICE CHICAGO/ROMEOVILLE IL
400 AM CDT FRI APR 29 2016

NOTE: "FAIR" INDICATES FEW OR NO CLOUDS BELOW 12,000 FEET WITH NO
SIGNIFICANT WEATHER AND/OR OBSTRUCTIONS TO VISIBILITY.

* THESE STATIONS ARE NOT UNDER NWS QUALITY CONTROL. THEY ALSO MAY NOT
  REPORT WEATHER SUCH AS PRECIPITATION OR FOG.

ILZ005-006-012>014-019>023-291000-
NORTHEAST ILLINOIS

CITY           SKY/WX    TMP DP  RH WIND       PRES   REMARKS
OHARE          DRIZZLE   43  41  93 NW9       30.02R FOG
MIDWAY         CLOUDY    45  41  86 NW9       30.02R FOG
AURORA         CLOUDY    44  41  89 N9        30.02S FOG
LANSING*       CLOUDY    45  43  95 N5        30.01R FOG
WAUKEGAN       CLOUDY    41  40  96 N5        30.03R
DUPAGE AIRPORT CLOUDY    43  40  89 N9        30.02R FOG
WHEELING       CLOUDY    42  41  96 N7        30.04R FOG
$$

WIZ051-052-058>065-066-070>072-291000-
SOUTHEAST WISCONSIN

CITY           SKY/WX    TMP DP  RH WIND       PRES   REMARKS
MILWAUKEE      CLOUDY    40  38  93 NE7       30.04S
KENOSHA*       CLOUDY    41  38  89 NE8       30.04S
RACINE*        CLOUDY    40  37  89 N7        30.06R
BURLINGTON     CLOUDY    39  38  99 N3        30.05R FOG
WAUKESHA       DRIZZLE   36  36 100 N5        30.06R
$$

INZ001>003-010>013-019-020-291000-
NORTHWEST INDIANA

CITY           SKY/WX    TMP DP  RH WIND       PRES   REMARKS
GARY*          NOT AVBL
MICHIGAN CITY* NOT AVBL
RENSSELAER*    NOT AVBL
VALPARAISO     CLOUDY    46  44  93 N5        30.01R FOG
$$

LMZ740>746-291000-
SOUTHERN LAKE MICHIGAN

STATION/POSITION TIME  SKY/WX   TEMP WIND        PRES    VSBY
                                AIR  DIR/SP/G
                 (UTC)          (F)  (DEG/KT/KT) (MB)    (MI)
HARRISON CRIB    0800            44  330/ 10/ 10   N/A
BURNHAM HARBOR   0900            44  340/  5/  6   N/A
CALUMET HARBOR   0800            44  290/  3/  6 1015.3F
BURNS HARBOR     0800            44  310/  6/  8 1016.3F
MICHIGAN CITY    0800            43  230/ 12/ 13   N/A
$$

ABBREVIATIONS USED IN REMARKS
   TC - TEMPERATURE IN CELSIUS
  WCI - WIND CHILL INDEX
   HX - HEAT INDEX
  VSB - VISIBILITY
$$




USA.gov is the U.S. government's official web portal to all federal, state and local government web resources and services.